Retour au catalogue

NIMBUS 2 DEB

ActifLEO
NORAD 26669·DEBRIS·🇺🇸 United States

Lancé May 15, 1966 depuis Vandenberg Space Force Base

Loading…

Prochains Passages (prochaines 24 heures)

TLE

FraisSource: Space-Track

Époque: Sep 14, 2026, 02:25 UTC

1 26669U 66040J   26257.10120226  .00003771  00000-0  31082-2 0  9995
2 26669 100.1429 313.3617 0029437 300.2503  90.1338 13.89621270302200

Suivez NIMBUS 2 DEB en temps réel avec AllMySat

Download on the App Store